Location: Peterborough
(44.3091°N, 78.3197°W)
Time: 19:33:24
(UTC-04:00)

Tiros 1 - Pass Details

Date: 26 March 2023
Orbit: 627 x 661 km, 48.4° (Epoch: 04 June)

Event Time Altitude Azimuth Distance (km) Brightness Sun altitude
Exits shadow 06:32:31 - 236° (WSW) 2,420 9.5 -6.7°
Reaches altitude 10° 06:33:26 10° 235° (SW) 2,069 9.2 -6.6°
Maximum altitude 06:38:11 71° 152° (SSE) 698 7.4 -5.7°
Drops below altitude 10° 06:42:58 10° 69° (ENE) 2,077 11.4 -4.9°
Sets 06:45:20 0° 67° (ENE) 2,989 12.5 -4.5°
